{"data":{"norad_id":65808,"epoch":"2026-09-20T13:22:24.645216Z","epoch_age_seconds":101163,"freshness":"FRESH","line1":"1 65808U 25218T   26263.55722969  .00007075  00000+0  22127-3 0  9994","line2":"2 65808  97.2848 120.9505 0001861  81.2263 278.9191 15.33445259 54341","mean_motion":15.33445259,"eccentricity":0.0001861,"inclination_deg":97.2848,"raan_deg":120.9505,"arg_perigee_deg":81.2263,"mean_anomaly_deg":278.9191,"bstar":0.00022127,"rev_number":5434,"period_min":93.90618879601,"perigee_km":464.2687951394,"apogee_km":466.81601261352,"semimajor_km":6843.6794038765,"source":"CELESTRAK","updated_at":"2026-09-21T09:00:35.717142Z"}}